Regional Weather Roundup
Issued by NWS

Home | Current Version | Previous Version | Graphics & Text | Print | Product List | Glossary Off
Versions: 1 2 3 4 5 6 7 8 9 10 11 12 13 14 15 16 17 18 19 20 21 22 23 24 25 26 27 28 29 30 31 32 33 34 35 36 37 38 39 40 41 42 43 44 45 46 47 48 49 50

000
ASUS43 KMKX 180200
RWRWI

WISCONSIN REGIONAL WEATHER ROUNDUP
NATIONAL WEATHER SERVICE MILWAUKEE/SULLIVAN WI
900 PM CDT FRI APR 17 2015

NOTE: "FAIR" INDICATES FEW OR NO CLOUDS BELOW 12,000 FEET WITH NO
SIGNIFICANT WEATHER AND/OR OBSTRUCTIONS TO VISIBILITY.

WIZ001-002-006>008-014>016-023>028-180300-
NORTHWEST WISCONSIN

CITY           SKY/WX    TMP DP  RH WIND       PRES   REMARKS
SUPERIOR ARPT  CLEAR     64  24  22 W6        29.99R
ASHLAND        CLEAR     57  23  26 W5        29.99R
HAYWARD        CLEAR     56  29  35 CALM      30.01R
SIREN          PTCLDY    59  24  26 CALM      30.02S
CUMBERLAND     PTCLDY    63  14  15 NW3       30.02R
RICE LAKE      PTCLDY    60  30  31 CALM      30.03R
CHETEK         PTCLDY    60  33  36 W5        30.02R
LADYSMITH      CLEAR     63  31  30 W6        30.02R
EAU CLAIRE     CLEAR     63  31  30 NW6       30.01R
MENOMONIE      PTCLDY    65  30  26 NW7       30.01R
NEW RICHMOND   CLEAR     60  29  31 N3        30.03R
OSCEOLA        CLEAR     65  27  23 CALM      30.05R
$$

WIZ003>005-009-010-017-018-180300-
NORTH CENTRAL WISCONSIN

CITY           SKY/WX    TMP DP  RH WIND       PRES   REMARKS
MANITOWISH WTR CLEAR     51  33  50 CALM      29.99R
ARBOR VITAE    CLEAR     58  28  32 NW5       29.99R
WOODRUFF       CLEAR     58  28  32 NW5       29.99R
RHINELANDER    CLEAR     60  27  28 W7        29.99R
EAGLE RIVER    CLEAR     53  31  43 CALM      29.97R
LAND O LAKES   CLEAR     49  35  59 CALM      30.00R
PHILLIPS       PTCLDY    60  31  33 CALM      29.99R
TOMAHAWK       PTCLDY    58  33  38 CALM      30.00R
MEDFORD        FAIR      60  36  41 W5        30.01R
MERRILL        PTCLDY    62  37  40 W6        29.99R
$$

WIZ029-030-035-036-043>047-180300-
CENTRAL WISCONSIN

CITY           SKY/WX    TMP DP  RH WIND       PRES   REMARKS
WAUSAU         CLEAR     64  40  41 W7        29.98R
MOSINEE        CLEAR     64  39  39 W5        30.00R
MARSHFIELD     CLEAR     62  44  51 NW6       30.00R
STEVENS POINT  CLEAR     64  42  45 NW3       29.99R
WAUPACA        CLEAR     63  42  45 CALM      29.97R
WAUTOMA        NOT AVBL
WISC RAPIDS    CLEAR     60  41  49 CALM      30.00R
CAMP DOUGLAS   NOT AVBL
$$

WIZ011>013-019>022-031-037>040-048>050-180300-
NORTHEAST WISCONSIN

CITY           SKY/WX    TMP DP  RH WIND       PRES   REMARKS
ANTIGO         CLEAR     61  44  54 W9        29.98R
SHAWANO        CLEAR     69  39  33 W3        29.96R
OCONTO         CLEAR     54  40  61 CALM      29.96R
STURGEON BAY   CLEAR     48  37  66 S8        29.99S
GREEN BAY      CLEAR     60  42  51 S7        29.97R
MANITOWOC      NOT AVBL
APPLETON       PTCLDY    61  43  51 SE8       29.98R
CLINTONVILLE   CLEAR     68  37  32 W5        29.96R
OSHKOSH        CLEAR     56  45  66 S8        29.97R
$$

WIZ032>034-041-042-053>061-180300-
SOUTHWEST WISCONSIN

CITY           SKY/WX    TMP DP  RH WIND       PRES   REMARKS
LA CROSSE      PTCLDY    64  47  53 CALM      29.98R
SPARTA         CLEAR     59  42  52 CALM      30.00R
VIROQUA        PTCLDY    65  41  41 CALM      30.01R
BOSCOBEL       CLEAR     62  45  53 CALM      30.00R
PRAIRIE DU CHI PTCLDY    67  43  41 CALM      29.99R
PLATTEVILLE    MOCLDY    71  45  40 CALM      30.00R
$$

WIZ056-057-062-063-064-067-068-180300-
SOUTH CENTRAL WISCONSIN

CITY           SKY/WX    TMP DP  RH WIND       PRES   REMARKS
REEDSBURG      CLEAR     66  44  43 CALM      29.98R
BARABOO/DELLS  CLEAR     65  40  38 CALM      29.99R
LONE ROCK      NOT AVBL
MINERAL POINT  CLEAR     70  41  35 CALM      30.01R
MADISON        PTCLDY    63  45  51 CALM      29.99R
MIDDLETON      CLEAR     61  46  57 CALM      30.00R
WATERTOWN      CLEAR     60  46  59 CALM      29.99R
MONROE         CLEAR     70  45  40 W9        30.00R
JANESVILLE     NOT AVBL
$$

WIZ051-052-058>065-066-070>072-180300-
SOUTHEAST WISCONSIN

CITY           SKY/WX    TMP DP  RH WIND       PRES   REMARKS
MILWAUKEE      PTCLDY    50  38  63 CALM      30.01R
WAUKESHA       NOT AVBL
MILWAUKEE/TIMM CLEAR     55  37  50 CALM      30.01S
RACINE         CLEAR     52  41  66 SE3       30.02S
BURLINGTON     CLEAR     58  44  60 CALM      30.00R
KENOSHA        CLEAR     47  42  83 E6        30.01R
FOND DU LAC    CLEAR     59  43  55 S9        29.98R
SHEBOYGAN      CLEAR     49  41  74 SW7       29.99S
WEST BEND      CLEAR     54  36  50 CALM      30.00S
JUNEAU         CLEAR     60  46  59 SE8       30.00R
$$

LSZ147-162-180300-
LAKE SUPERIOR

STATION/POSITION TIME  TEMP    WIND        PRES    WAVE
                       AIR SEA DIR/SP/G            HT/PER
                 (UTC) (F)     (DEG/KT/KT) (MB)    (FT/S)
DEVILS ISLAND    0100   52     250/ 18/ 19 1014.2R
PORT WING        0100   59     270/ 10/ 12 1014.6S
SAXON HARBOR     0100   55        CALM     1014.2S
$$

LMZ867-665-643>646-180300-
LAKE MICHIGAN

STATION/POSITION TIME  TEMP    WIND        PRES    WAVE
                       AIR SEA DIR/SP/G            HT/PER
                 (UTC) (F)     (DEG/KT/KT) (MB)    (FT/S)
CHAMBERS ISLAND  0100   54     120/  1/  5 1014.9R
NORTHPORT PIER   0100   52     170/  6/ 11 1014.6F
SISTER BAY       0117   51     150/  9/ 12   N/A
KEWAUNEE LAKESHO 0100   45     180/  8/  9 1014.4F
SHEBOYGAN LAKESH 0100   45     190/ 11/ 11 1016.2F
PORT WASHINGTON  0100   46     190/  1/  2 1016.6F
MILWAUKEE LAKESH 0100   43      50/  7/  7   N/A
KENOSHA   LAKESH 0100   46      40/  6/  7 1015.9S
$$

TC  - TEMPERATURE IN CELSIUS
VSB - VISIBILITY IN STATUTE MILES
WCI - WIND CHILL INDEX
HX  - HEAT INDEX



USA.gov is the U.S. government's official web portal to all federal, state and local government web resources and services.